Regional Weather Roundup
Issued by NWS

Home | Current Version | Previous Version | Text Only | Print | Product List | Glossary Off
Versions: 1 2 3 4 5 6 7 8 9 10 11 12 13 14 15 16 17 18 19 20 21 22 23 24 25 26 27 28 29 30 31 32 33 34 35 36 37 38 39 40 41 42 43 44 45 46 47 48 49 50

000
ASUS43 KBIS 070802
RWRND

NORTH DAKOTA REGIONAL WEATHER ROUNDUP
NATIONAL WEATHER SERVICE BISMARCK ND
300 AM CDT TUE JUL 07 2015

NOTE: "FAIR" INDICATES FEW OR NO CLOUDS BELOW 12,000 FEET WITH NO
SIGNIFICANT WEATHER AND/OR OBSTRUCTIONS TO VISIBILITY.


NDZ001>003-009>011-017-070900-
NORTHWEST NORTH DAKOTA

CITY           SKY/WX    TMP DP  RH WIND       PRES   REMARKS
WILLISTON      CLEAR     53  48  83 CALM      30.16F
MINOT          CLEAR     50  44  80 S5        30.17S
$$

NDZ018>021-031>035-040>046-070900-
SOUTHWEST NORTH DAKOTA

CITY           SKY/WX    TMP DP  RH WIND       PRES   REMARKS
BISMARCK       CLEAR     51  48  89 NE3       30.20F
DICKINSON      CLEAR     50  48  93 SE8       30.18F FOG
GARRISON         N/A     50  47  89 E3        30.18F
HETTINGER ARPT CLEAR     53  49  86 SE8       30.20F FOG
$$

NDZ004>008-012>016-024-026-027-054-070900-
NORTHEAST NORTH DAKOTA

CITY           SKY/WX    TMP DP  RH WIND       PRES   REMARKS
GRAND FORKS    CLEAR     45  43  93 W3        30.16S
GRND FRKS AFB  CLEAR     44  43  94 W3        30.17S
DEVILS LAKE    CLEAR     54  45  71 S7        30.18R
$$

NDZ022-023-025-028>030-036>039-047>053-070900-
SOUTHEAST NORTH DAKOTA

CITY           SKY/WX    TMP DP  RH WIND       PRES   REMARKS
FARGO          CLEAR     48  43  82 CALM      30.18R
JAMESTOWN      CLEAR     51  47  86 SW3       30.20R
$$




USA.gov is the U.S. government's official web portal to all federal, state and local government web resources and services.